When you browse on this site, cookies collect data to enhance your experience and personalize the content and advertising you see.
Visit our Privacy Policy to learn more. By continuing to use the site, you agree to this use of cookies and data.
  • In Germany
  • List of Countries
  • For 7 days
  • Water Temperature
  • Satellite Maps
  • Weather Map
  • Weather Widgets
  • user-avatar
    Login

    Hourly Weather Ghanzi

    Today, 22 January, Tuesday

    Time Temperature Precipitation Wind Pressure Humidity
    00:00 +12°C° 0 mm 4 mps 718 mmHg 29%
    01:00 +11°C° 0 mm 4 mps 717 mmHg 33%
    02:00 +11°C° 0 mm 4 mps 717 mmHg 36%
    03:00 +10°C° 0 mm 4 mps 717 mmHg 39%
    04:00 +10°C° 0 mm 4 mps 717 mmHg 42%
    05:00 +10°C° 0 mm 4 mps 717 mmHg 44%
    06:00 +10°C° 0 mm 4 mps 717 mmHg 45%
    07:00 +10°C° 0 mm 3 mps 718 mmHg 47%
    08:00 +12°C° 0 mm 4 mps 718 mmHg 40%
    09:00 +14°C° 0 mm 4 mps 718 mmHg 33%
    10:00 +17°C° 0 mm 4 mps 718 mmHg 26%
    11:00 +19°C° 0 mm 4 mps 718 mmHg 22%
    12:00 +21°C° 0 mm 3 mps 717 mmHg 18%
    13:00 +24°C° 0 mm 3 mps 717 mmHg 14%
    14:00 +24°C° 0 mm 3 mps 716 mmHg 13%
    15:00 +25°C° 0 mm 3 mps 716 mmHg 13%
    16:00 +25°C° 0 mm 3 mps 715 mmHg 12%
    17:00 +22°C° 0 mm 3 mps 715 mmHg 14%
    18:00 +20°C° 0 mm 3 mps 715 mmHg 16%
    19:00 +18°C° 0 mm 3 mps 714 mmHg 17%
    20:00 +18°C° 0 mm 3 mps 714 mmHg 18%
    21:00 +17°C° 0 mm 3 mps 714 mmHg 19%
    22:00 +16°C° 0 mm 3 mps 714 mmHg 20%
    23:00 +15°C° 0 mm 2 mps 714 mmHg 21%

    Tomorrow, 23 January, Wednesday

    Time Temperature Precipitation Wind Pressure Humidity
    00:00 +15°C° 0 mm 2 mps 714 mmHg 22%
    01:00 +14°C° 0 mm 2 mps 713 mmHg 22%
    02:00 +14°C° 0 mm 2 mps 713 mmHg 22%
    03:00 +14°C° 0 mm 2 mps 712 mmHg 22%
    04:00 +13°C° 0 mm 2 mps 712 mmHg 22%
    05:00 +14°C° 0 mm 2 mps 712 mmHg 21%
    06:00 +14°C° 0 mm 2 mps 712 mmHg 20%
    07:00 +14°C° 0 mm 1 mps 712 mmHg 19%
    08:00 +17°C° 0 mm 2 mps 713 mmHg 16%
    09:00 +20°C° 0 mm 3 mps 713 mmHg 13%
    10:00 +25°C° 0 mm 3 mps 714 mmHg 11%
    11:00 +27°C° 0 mm 4 mps 713 mmHg 10%
    12:00 +29°C° 0 mm 5 mps 712 mmHg 10%
    13:00 +32°C° 0 mm 6 mps 711 mmHg 10%
    14:00 +32°C° 0 mm 6 mps 711 mmHg 10%
    15:00 +32°C° 0 mm 5 mps 710 mmHg 11%
    16:00 +32°C° 0 mm 5 mps 710 mmHg 12%
    17:00 +29°C° 0 mm 5 mps 710 mmHg 14%
    18:00 +27°C° 0 mm 5 mps 710 mmHg 16%
    19:00 +25°C° 0 mm 4 mps 710 mmHg 18%
    20:00 +25°C° 0 mm 5 mps 711 mmHg 19%
    21:00 +23°C° 0 mm 5 mps 711 mmHg 20%
    22:00 +23°C° 0 mm 6 mps 711 mmHg 21%
    23:00 +21°C° 0 mm 5 mps 712 mmHg 19%

    Day after tomorrow, 24 January, Thursday

    Time Temperature Precipitation Wind Pressure Humidity
    00:00 +19°C° 0 mm 5 mps 712 mmHg 17%
    01:00 +16°C° 0 mm 5 mps 712 mmHg 15%
    02:00 +15°C° 0 mm 6 mps 712 mmHg 19%
    03:00 +15°C° 0 mm 6 mps 712 mmHg 23%
    04:00 +14°C° 0 mm 6 mps 713 mmHg 28%
    05:00 +13°C° 0 mm 6 mps 713 mmHg 28%
    06:00 +13°C° 0 mm 6 mps 714 mmHg 28%
    07:00 +11°C° 0 mm 6 mps 714 mmHg 28%
    08:00 +14°C° 0 mm 6 mps 715 mmHg 25%
    09:00 +15°C° 0 mm 6 mps 715 mmHg 21%
    10:00 +17°C° 0 mm 7 mps 716 mmHg 17%
    11:00 +19°C° 0 mm 6 mps 715 mmHg 15%
    12:00 +20°C° 0 mm 5 mps 714 mmHg 14%
    13:00 +21°C° 0 mm 4 mps 713 mmHg 12%
    14:00 +22°C° 0 mm 4 mps 713 mmHg 12%
    15:00 +22°C° 0 mm 4 mps 713 mmHg 12%
    16:00 +22°C° 0 mm 4 mps 712 mmHg 12%
    17:00 +20°C° 0 mm 3 mps 712 mmHg 13%
    18:00 +18°C° 0 mm 3 mps 713 mmHg 15%
    19:00 +17°C° 0 mm 3 mps 713 mmHg 16%
    20:00 +16°C° 0 mm 3 mps 713 mmHg 17%
    21:00 +14°C° 0 mm 3 mps 713 mmHg 18%
    22:00 +14°C° 0 mm 3 mps 713 mmHg 18%
    23:00 +13°C° 0 mm 3 mps 713 mmHg 19%

    25 January, Friday

    Time Temperature Precipitation Wind Pressure Humidity
    00:00 +14°C° 0 mm 2 mps 712 mmHg 19%
    01:00 +13°C° 0 mm 2 mps 712 mmHg 20%
    02:00 +13°C° 0 mm 2 mps 712 mmHg 20%
    03:00 +13°C° 0 mm 2 mps 712 mmHg 21%
    04:00 +12°C° 0 mm 2 mps 712 mmHg 21%
    05:00 +13°C° 0 mm 2 mps 712 mmHg 21%
    06:00 +13°C° 0 mm 2 mps 713 mmHg 20%
    07:00 +13°C° 0 mm 2 mps 713 mmHg 20%
    08:00 +16°C° 0 mm 2 mps 714 mmHg 18%
    09:00 +18°C° 0 mm 2 mps 714 mmHg 15%
    10:00 +21°C° 0 mm 2 mps 714 mmHg 13%
    11:00 +23°C° 0 mm 2 mps 714 mmHg 12%
    12:00 +24°C° 0 mm 2 mps 713 mmHg 11%
    13:00 +26°C° 0 mm 2 mps 713 mmHg 11%
    14:00 +26°C° 0 mm 2 mps 713 mmHg 10%
    15:00 +26°C° 0 mm 2 mps 712 mmHg 10%
    16:00 +26°C° 0 mm 2 mps 712 mmHg 10%
    17:00 +24°C° 0 mm 3 mps 712 mmHg 11%
    18:00 +21°C° 0 mm 3 mps 712 mmHg 12%
    19:00 +20°C° 0 mm 3 mps 713 mmHg 13%
    20:00 +19°C° 0 mm 3 mps 713 mmHg 13%
    21:00 +19°C° 0 mm 3 mps 713 mmHg 13%
    22:00 +19°C° 0 mm 3 mps 713 mmHg 13%
    23:00 +18°C° 0 mm 4 mps 713 mmHg 13%

    26 January, Saturday

    Time Temperature Precipitation Wind Pressure Humidity
    00:00 +17°C° 0 mm 4 mps 713 mmHg 14%
    01:00 +15°C° 0 mm 4 mps 713 mmHg 14%
    02:00 +15°C° 0 mm 4 mps 713 mmHg 15%
    03:00 +14°C° 0 mm 4 mps 713 mmHg 16%
    04:00 +13°C° 0 mm 5 mps 713 mmHg 17%
    05:00 +13°C° 0 mm 5 mps 713 mmHg 17%
    06:00 +13°C° 0 mm 4 mps 714 mmHg 18%
    07:00 +13°C° 0 mm 4 mps 714 mmHg 18%
    08:00 +15°C° 0 mm 5 mps 714 mmHg 17%
    09:00 +19°C° 0 mm 5 mps 715 mmHg 16%
    10:00 +21°C° 0 mm 5 mps 715 mmHg 14%
    11:00 +22°C° 0 mm 5 mps 715 mmHg 13%
    12:00 +23°C° 0 mm 5 mps 714 mmHg 12%
    13:00 +25°C° 0 mm 4 mps 714 mmHg 11%
    14:00 +25°C° 0 mm 4 mps 713 mmHg 11%
    15:00 +25°C° 0 mm 4 mps 713 mmHg 11%
    16:00 +23°C° 0 mm 4 mps 713 mmHg 11%
    17:00 +22°C° 0 mm 4 mps 713 mmHg 13%
    18:00 +21°C° 0 mm 3 mps 713 mmHg 14%
    19:00 +19°C° 0 mm 3 mps 714 mmHg 15%
    20:00 +18°C° 0 mm 3 mps 714 mmHg 16%
    21:00 +18°C° 0 mm 3 mps 714 mmHg 17%
    22:00 +17°C° 0 mm 3 mps 715 mmHg 18%
    23:00 +16°C° 0 mm 3 mps 714 mmHg 19%

    27 January, Sunday

    Time Temperature Precipitation Wind Pressure Humidity
    00:00 +16°C° 0 mm 3 mps 714 mmHg 20%
    01:00 +14°C° 0 mm 3 mps 714 mmHg 21%
    02:00 +13°C° 0 mm 4 mps 714 mmHg 23%
    03:00 +13°C° 0 mm 4 mps 714 mmHg 25%
    04:00 +12°C° 0 mm 5 mps 714 mmHg 28%
    05:00 +12°C° 0 mm 5 mps 715 mmHg 29%
    06:00 +10°C° 0 mm 5 mps 715 mmHg 29%
    07:00 +10°C° 0 mm 5 mps 715 mmHg 30%
    08:00 +14°C° 0 mm 6 mps 716 mmHg 27%
    09:00 +16°C° 0 mm 6 mps 716 mmHg 23%
    10:00 +19°C° 0 mm 6 mps 717 mmHg 20%
    11:00 +20°C° 0 mm 6 mps 716 mmHg 18%
    12:00 +22°C° 0 mm 5 mps 715 mmHg 16%
    13:00 +23°C° 0 mm 5 mps 715 mmHg 15%
    14:00 +23°C° 0 mm 5 mps 714 mmHg 14%
    15:00 +23°C° 0 mm 5 mps 714 mmHg 14%
    16:00 +23°C° 0 mm 4 mps 714 mmHg 14%
    17:00 +21°C° 0 mm 4 mps 714 mmHg 16%
    18:00 +19°C° 0 mm 4 mps 714 mmHg 18%
    19:00 +17°C° 0 mm 4 mps 714 mmHg 20%
    20:00 +17°C° 0 mm 4 mps 714 mmHg 20%
    21:00 +17°C° 0 mm 4 mps 714 mmHg 21%
    22:00 +15°C° 0 mm 4 mps 715 mmHg 22%
    23:00 +15°C° 0 mm 4 mps 714 mmHg 22%
    Show more